Weather in Posyolok Imeni Sverdlova

Russia / Saint-Petersburg and Leningrad Oblast     59°47′53″N   30°38′11″E
temp.,
°C
wind,
m/s
gust,
m/s
humid.,
%
clouds,
%
prec.,
mm/h
press.,
hPa
HPBL,
m
28 july, wed
wed2800:00+19se2557100 0.0 101579
03:00+18se2665100 0.0 1014105
06:00+18se2568100 0.0 1012106
09:00+22sse3559100 0.0 1011347
12:00+26s2350100 0.0 10101115
15:00+25sw2255100 0.1 1009935
18:00+21sw2480100 0.4 1008159
21:00+19sse119097 4.3 100618
29 july, thu
thu2900:00+17ssw229817 3.0 100651
03:00+17sw2598100 3.1 1005114
06:00+17sw299553 0.0 1004228
09:00+19wsw4878100 0.0 1003451
12:00+24w465351 0.0 10031292
15:00+25w365294 0.9 10021600
18:00+23w385964 0.1 1001881
21:00+19w25839 0.1 1001102
30 july, fri
fri3000:00+16wsw249071 0.0 100194
03:00+15sw2109417 0.0 1001249
06:00+15sw3108763 0.0 1001393
09:00+19sw477270 0.1 1001985
12:00+23sw584091 0.1 10002344
15:00+22sw610505 0.1 10001641
18:00+23sw4945100 0.1 9992418
21:00+18sw396172 0.1 998589
31 july, sat
sat3100:00+13s3119195 0.4 997278
03:00+13s41385100 0.4 996548
06:00+13s41295100 1.6 995703
09:00+16wsw5108939 2.3 9961018
12:00+20w6106330 0.8 9971579
15:00+24w693913 0.9 9992009
18:00+23wnw47504 0.0 10001232
21:00+17w11757 0.0 100112
1 august, sun
sun100:00+15sw2291100 0.0 100145
03:00+14s259799 0.0 1001109
06:00+15s2898100 1.8 1000245
09:00+18ssw468673 3.5 999644
12:00+22sw585274 0.3 9991869
15:00+21wsw595899 0.4 10001569
18:00+20wsw511685 1.0 10011418
21:00+18wsw4117017 1.7 1002755